Wind_Speed
16 16 17 17 18 18 18 18 17 19 18 10 5 4 3 2 2 8 18 8 6 7 5 1 4 4 2 1 1 2 2 2 2 3 3 2 1 2 2 1 2 2 1 1 1 2 2 2 3 3 2 2 2 2 1 3 3 2 1 2 1 1 1 3 3 1 2 4 4 2 2 2 4 6 5 4 2 2 3 3 3 3 3 2 3 4 0
16 17 17 17 18 19 19 19 17 18 17 11 6 4 2 1 2 6 18 12 5 3 4 2 2 3 2 2 3 2 2 3 4 3 4 3 1 2 2 1 2 2 1 1 2 3 2 2 3 2 2 2 2 2 1 2 3 2 2 2 2 1 1 3 3 2 0 2 2 2 2 1 3 3 4 4 2 3 2 1 2 2 2 3 5 5 1
17 17 18 18 19 19 19 18 16 16 16 12 7 4 3 2 1 2 15 21 12 4 1 2 3 3 3 4 3 2 3 3 2 2 3 2 1 1 2 1 2 1 0 1 4 5 3 3 2 1 2 2 1 1 2 2 3 2 0 2 3 1 2 2 3 4 4 4 3 3 3 3 2 3 5 6 4 3 2 2 2 1 2 3 4 4 2
17 18 18 18 19 19 19 18 16 15 14 10 9 6 2 1 2 1 6 12 9 3 1 2 3 3 3 4 3 3 3 2 1 0 2 2 1 2 3 1 1 1 2 2 4 6 5 3 3 2 3 2 0 0 1 2 3 1 2 1 1 1 1 3 2 2 4 5 4 4 4 4 2 4 6 7 5 3 2 2 2 2 4 4 1 1 6
17 18 18 18 19 19 19 18 16 14 12 8 8 7 3 1 2 1 1 2 3 3 4 4 2 1 1 2 2 3 3 1 1 1 1 1 1 2 3 4 2 2 2 1 3 4 3 4 3 1 2 3 2 2 1 1 4 2 3 0 1 1 1 2 1 3 3 3 3 3 3 2 2 3 4 6 7 4 3 2 2 3 4 3 1 1 8
17 17 18 18 19 19 19 18 15 13 12 8 5 4 4 2 2 1 2 1 1 2 3 4 4 4 2 2 2 2 3 3 2 1 1 1 1 0 2 5 6 3 2 1 2 2 2 3 2 1 1 3 3 2 1 0 4 3 1 2 1 0 2 1 1 3 3 1 2 1 1 3 4 3 3 5 6 5 4 3 1 2 4 7 7 7 10
17 17 18 18 19 19 19 18 15 12 11 9 8 5 2 2 3 1 2 2 2 2 2 2 4 6 5 3 2 3 4 4 2 1 1 1 3 3 2 4 7 5 2 1 2 2 2 3 1 1 1 2 3 3 1 0 3 4 3 3 1 1 1 2 1 3 3 1 1 1 2 3 4 4 4 4 3 3 2 2 2 2 6 9 10 11 11
17 18 18 18 19 19 18 17 15 12 10 9 9 6 1 1 2 1 2 4 2 2 2 1 3 5 4 3 2 2 3 3 2 1 3 2 3 4 3 3 5 6 5 3 4 3 3 3 2 2 2 0 1 1 1 1 4 5 3 2 2 2 2 2 1 3 2 2 1 1 3 3 3 3 4 4 2 1 0 1 2 4 8 9 9 11 9
18 18 18 18 18 18 17 17 15 13 10 9 8 5 3 4 4 4 5 4 3 3 2 1 2 3 3 2 1 1 2 2 2 2 3 3 3 4 2 3 2 4 7 8 6 4 2 3 2 1 1 2 1 1 1 1 4 4 3 2 3 3 2 1 0 3 1 2 1 1 3 3 3 1 3 5 3 1 2 3 3 5 9 10 9 9 5
18 18 18 17 18 18 18 16 16 14 11 8 6 3 4 5 4 3 4 3 2 2 1 1 2 2 2 2 1 1 2 1 0 2 2 1 3 3 1 1 1 3 6 7 4 3 1 2 2 1 2 4 4 3 3 1 2 2 1 1 2 2 1 1 2 4 2 1 1 1 3 2 1 1 2 3 2 3 4 6 6 7 6 6 7 5 4
17 17 18 18 18 19 18 17 16 15 13 9 6 6 5 4 3 2 3 4 2 2 1 2 3 2 1 1 2 2 3 2 1 1 2 2 3 2 1 2 2 3 3 3 2 1 2 3 3 4 5 6 6 3 3 5 5 3 1 0 1 1 1 1 1 3 4 5 5 2 2 2 2 4 2 2 4 5 5 8 12 10 5 5 6 5 4
17 18 19 19 19 19 18 18 16 16 15 11 7 9 7 5 5 2 3 5 2 3 2 3 2 2 1 1 2 2 3 3 2 2 2 3 2 3 2 0 1 3 2 2 2 3 5 5 5 4 3 4 3 2 5 8 7 3 1 1 1 1 1 1 0 2 3 5 6 3 2 3 2 4 1 3 5 6 8 13 14 9 6 6 6 5 5
18 19 19 19 19 18 18 18 17 17 17 11 8 12 11 8 7 4 3 5 2 2 2 3 1 2 2 1 2 3 2 2 1 1 3 4 2 3 3 1 1 2 2 4 3 3 3 3 2 2 2 0 1 1 4 7 6 5 5 3 1 1 1 1 1 1 2 3 4 4 4 2 3 3 2 2 2 4 7 11 9 6 6 5 5 5 7
18 19 19 18 18 17 18 19 17 17 17 12 9 14 12 8 6 3 2 4 3 1 0 2 2 2 3 2 2 2 2 2 1 2 2 2 3 3 2 1 1 1 2 3 2 0 1 1 0 2 2 1 1 1 1 3 3 5 7 5 3 1 1 0 1 2 1 2 2 3 3 0 2 3 2 1 2 4 6 7 4 5 6 3 4 6 8
18 18 18 18 17 16 17 19 18 17 17 13 12 16 14 10 8 7 6 5 4 2 1 1 2 1 1 2 1 1 2 1 1 2 1 1 1 2 1 1 1 1 1 1 0 0 0 0 0 1 1 1 0 1 1 0 1 2 3 4 4 4 2 2 1 1 0 2 3 2 3 1 1 3 3 2 2 3 2 5 5 4 7 3 4 7 10
17 18 18 17 17 16 16 18 18 17 15 12 13 18 18 14 12 14 11 5 4 3 2 2 2 2 2 1 2 0 2 1 1 2 1 1 1 1 1 1 1 1 2 2 1 1 1 1 1 0 1 1 2 2 3 2 1 1 2 3 5 5 3 1 1 1 1 1 3 2 2 2 2 4 4 2 1 2 3 3 3 4 6 3 5 7 10
17 17 18 17 17 16 16 15 16 17 16 13 13 16 18 14 11 14 12 6 4 4 2 2 4 2 1 1 0 0 1 0 1 1 1 2 1 1 1 2 1 1 1 0 1 1 1 1 1 0 1 1 1 2 2 2 3 2 1 2 4 4 3 2 2 2 1 1 2 2 3 1 3 5 3 1 1 5 3 5 3 3 4 4 5 7 9
16 17 17 17 17 18 17 14 13 14 16 16 17 19 19 14 9 11 11 5 4 4 1 2 3 1 1 1 1 1 1 0 0 0 1 1 1 0 0 1 1 1 1 1 0 1 1 1 0 0 1 1 1 2 2 1 2 2 2 3 2 1 2 2 1 1 1 2 2 3 3 0 4 4 1 1 4 5 3 6 3 2 3 4 4 7 8
16 16 17 18 19 19 18 17 14 12 10 10 12 16 18 15 12 15 15 7 2 4 3 2 2 1 1 0 1 1 0 1 1 0 1 1 1 1 0 1 1 0 1 1 1 1 1 0 1 1 1 1 1 1 1 1 1 1 1 2 1 0 1 1 0 0 1 1 2 4 3 1 4 3 2 4 3 3 4 4 2 2 5 5 5 7 6
15 16 16 18 20 20 20 19 16 14 12 10 11 15 17 13 8 10 14 12 5 4 4 1 2 2 1 1 1 1 1 0 0 0 1 1 1 1 1 1 1 1 1 1 1 1 1 1 1 1 1 1 0 0 1 1 1 1 0 1 1 0 1 1 1 1 1 1 2 3 3 1 4 2 2 5 3 5 5 4 5 4 5 6 6 6 5
14 15 16 17 19 19 20 20 17 15 15 13 16 22 23 19 13 12 20 25 14 4 2 2 2 4 3 1 1 1 0 1 0 1 1 1 1 1 1 1 1 1 1 1 0 1 1 1 1 1 1 0 0 1 1 1 1 0 0 1 2 3 1 1 1 2 1 1 2 2 2 2 6 3 3 4 4 3 4 5 6 5 4 5 5 5 4
13 15 15 16 18 18 19 19 18 17 17 14 17 24 27 26 25 23 28 32 23 10 8 9 7 7 7 5 5 3 2 2 1 1 1 1 0 0 0 0 1 0 0 1 1 1 1 1 1 1 1 1 1 1 0 1 2 0 0 2 2 2 2 1 2 3 2 4 5 4 3 1 5 5 5 6 5 3 3 5 6 5 5 3 4 5 4
13 14 15 16 17 17 18 18 17 17 17 15 17 24 28 26 25 26 30 32 24 14 12 10 7 7 7 5 5 4 3 4 2 1 2 1 1 1 0 0 1 0 0 0 1 0 1 1 1 0 1 1 1 1 1 2 2 1 1 3 2 1 2 1 1 2 4 8 9 8 7 4 3 5 5 5 5 3 4 5 6 5 4 3 3 5 4
13 15 15 15 17 17 17 18 17 16 16 14 15 20 25 23 21 21 23 19 10 6 6 4 3 3 3 3 3 3 3 3 3 2 2 1 1 0 0 0 1 1 1 0 1 1 1 1 0 0 1 1 2 1 1 2 2 1 1 2 2 2 3 3 3 2 3 4 4 4 5 5 4 4 5 5 6 5 4 5 5 5 4 3 3 4 5
14 15 15 16 16 16 16 17 17 16 16 15 15 16 18 16 12 10 10 8 4 3 4 2 2 2 2 2 2 2 2 2 3 4 3 1 1 0 2 3 2 1 1 2 1 1 1 1 1 1 1 2 2 1 1 1 1 2 2 2 1 3 4 4 5 4 4 7 5 5 7 7 5 4 4 4 5 6 6 5 5 4 4 4 3 4 5
14 15 16 16 16 17 17 17 17 17 16 15 15 15 16 16 13 10 12 14 10 5 3 1 1 1 1 1 2 1 2 3 3 4 4 1 2 4 5 5 3 2 3 3 1 1 1 1 1 1 1 1 1 1 1 1 0 1 2 2 2 3 3 3 3 4 7 9 7 6 8 7 5 5 5 4 4 4 5 5 5 5 5 4 4 4 5
13 14 15 15 16 17 18 18 19 19 18 17 16 16 15 13 10 7 7 7 4 2 2 2 0 1 1 2 2 2 2 2 2 2 3 1 3 5 5 5 3 2 2 1 1 1 1 1 1 1 1 0 0 0 0 1 1 1 3 2 3 3 4 3 2 3 5 5 2 1 5 7 4 3 5 5 4 4 5 5 5 6 5 5 5 5 5
13 13 13 13 14 16 17 18 19 19 18 18 18 19 20 19 15 11 6 2 3 4 3 2 1 1 2 2 2 3 2 1 1 1 0 2 3 4 5 5 3 1 1 0 1 1 1 0 1 1 1 1 1 1 0 0 1 2 4 4 6 5 5 5 4 5 7 6 2 2 3 7 5 1 2 4 5 4 6 6 6 6 5 5 5 5 5
10 8 7 5 5 6 7 8 9 9 9 9 10 13 17 19 18 16 13 10 13 13 6 1 2 2 1 0 1 2 2 1 1 1 2 2 4 4 5 5 3 1 2 1 1 1 1 1 1 1 1 1 1 1 0 1 2 3 3 6 8 7 6 7 7 8 8 7 2 3 5 6 3 1 2 3 5 5 6 6 6 6 5 5 5 6 5
7 7 7 7 5 3 2 3 4 3 2 2 2 4 8 10 11 13 11 9 10 10 5 2 2 1 2 1 1 2 3 1 3 3 3 3 4 5 5 4 3 2 2 1 0 1 1 1 1 1 1 0 1 1 1 1 2 4 3 6 8 7 6 7 8 7 5 2 1 3 5 5 2 0 2 4 5 6 6 6 6 6 6 6 6 6 6
10 12 15 15 15 13 10 6 3 0 2 2 1 1 2 3 5 8 7 5 5 6 5 3 1 0 1 1 2 1 4 2 3 4 4 3 3 3 4 3 2 2 1 1 0 1 1 1 1 2 1 0 1 1 1 1 2 4 4 5 7 7 7 7 7 6 4 0 3 1 4 3 2 2 3 5 7 8 7 6 6 6 6 6 6 6 6
14 15 17 17 17 17 17 16 13 11 10 9 8 6 4 3 2 5 5 4 4 4 4 3 1 0 1 1 2 2 4 2 1 1 3 3 1 1 2 1 1 1 1 2 1 1 1 1 1 2 1 1 2 1 1 2 3 4 4 4 5 5 5 5 4 3 2 2 3 4 6 4 4 4 3 4 7 8 8 6 6 6 6 6 6 6 7
13 13 13 14 15 15 16 16 15 15 17 18 17 13 9 5 2 2 2 3 5 5 4 3 2 1 1 1 1 3 4 2 0 1 1 1 0 1 1 1 0 1 1 1 1 1 1 1 1 2 1 1 1 1 2 4 7 6 3 2 3 3 3 3 3 3 3 4 5 6 7 3 2 3 3 3 6 8 8 6 5 5 6 6 7 7 7
9 9 9 9 9 9 9 9 9 10 13 15 15 15 15 12 8 5 2 2 4 6 5 3 2 1 1 1 0 2 3 1 0 1 0 1 2 1 1 0 1 0 0 0 0 1 1 0 1 1 1 1 1 1 3 7 9 7 4 3 2 1 1 3 4 5 5 5 7 7 4 1 1 2 3 4 6 7 7 6 6 6 6 7 8 8 7
7 6 4 4 4 5 4 4 4 5 7 8 8 9 10 12 13 12 8 3 2 2 2 3 2 1 2 3 1 1 3 2 0 0 1 1 3 2 0 0 1 0 0 1 0 1 0 0 1 1 1 1 1 4 5 7 7 5 4 4 4 3 2 3 4 4 4 4 5 4 3 3 3 4 4 5 6 7 8 8 8 7 7 7 7 7 7
5 3 1 2 4 4 3 3 3 3 3 4 5 5 5 5 7 9 10 10 8 4 2 1 1 1 0 2 2 2 3 2 0 0 1 1 1 2 1 0 1 0 1 1 0 1 1 1 1 1 0 1 4 5 5 4 5 5 4 5 5 6 4 3 2 3 3 3 3 3 3 4 5 5 4 4 5 6 7 8 8 8 8 7 7 7 7
4 3 2 4 5 4 2 2 3 3 3 3 2 3 4 2 1 3 5 8 10 8 4 2 1 1 0 1 1 2 4 2 0 1 1 1 1 1 1 0 0 1 0 1 0 0 1 1 0 1 2 4 5 4 3 4 5 4 3 3 4 5 4 2 3 4 3 2 3 3 4 5 6 5 5 5 5 6 7 8 8 8 8 8 8 7 7
6 5 5 5 3 2 1 1 1 2 2 1 1 2 3 3 2 3 3 4 5 6 5 3 1 1 0 1 1 2 3 1 0 1 1 1 1 1 0 1 0 1 1 1 1 0 1 1 1 2 4 5 5 6 6 6 5 4 2 2 3 4 4 5 6 5 3 4 5 4 4 5 6 5 5 5 5 6 7 8 8 8 9 9 9 9 9
5 5 4 2 1 0 1 1 1 0 1 2 1 1 2 3 3 1 2 2 2 2 2 2 1 1 1 1 1 2 3 1 1 2 1 0 1 1 1 0 0 1 1 1 0 0 1 1 1 1 4 5 4 4 5 5 5 5 4 3 4 5 6 7 8 8 6 5 5 4 4 6 7 5 4 4 5 5 6 7 8 9 10 10 11 11 12
4 3 2 1 0 1 2 1 1 1 1 2 2 1 1 2 2 0 1 2 2 1 1 2 1 1 0 1 1 1 3 2 1 1 1 0 1 0 1 1 0 1 2 2 0 1 1 1 1 1 3 4 3 2 1 2 4 4 4 4 6 8 9 9 10 11 9 6 6 6 6 7 7 6 5 5 5 5 5 7 9 10 12 12 13 14 15
3 1 1 1 2 2 2 1 2 1 1 1 2 2 1 1 1 0 1 2 1 2 1 2 1 1 0 1 2 1 1 2 1 1 0 1 0 1 0 1 1 0 2 3 1 1 1 1 1 3 4 4 3 1 1 2 3 3 4 6 8 10 11 10 10 12 11 8 7 9 10 10 10 10 9 9 9 8 8 9 10 12 13 14 15 15 15
3 2 1 2 3 2 1 2 3 3 1 1 1 1 1 1 1 1 1 0 1 1 1 1 1 1 1 2 2 1 1 2 1 1 1 1 0 1 0 1 1 0 2 2 1 2 1 1 3 4 5 4 3 2 2 3 3 3 5 7 10 12 13 11 10 11 12 11 11 12 12 11 12 13 12 12 12 12 12 13 13 13 14 14 15 15 15
3 3 3 2 2 2 2 1 2 2 2 2 2 2 2 2 2 1 1 2 1 1 1 1 1 1 1 1 1 0 0 1 1 1 1 1 1 1 2 1 1 1 1 0 2 1 1 3 4 4 3 2 2 3 4 4 3 2 4 8 12 14 14 13 11 11 12 12 13 13 13 13 14 14 13 13 13 13 14 15 14 14 14 14 14 16 16
3 2 1 1 1 2 1 1 1 1 1 1 1 1 2 3 1 1 2 2 1 1 1 0 1 1 1 0 1 0 0 0 1 1 0 1 1 1 1 1 2 1 0 1 0 1 2 4 5 5 3 2 3 4 4 4 3 3 3 6 10 13 12 12 11 10 10 12 13 14 14 14 14 14 14 15 15 16 16 16 15 14 14 14 15 17 16
2 2 3 2 2 2 1 1 1 1 1 1 2 3 2 3 3 3 3 1 1 2 1 0 2 1 1 0 1 0 0 1 1 0 0 1 1 0 1 2 1 1 1 1 1 2 3 4 4 4 3 4 5 4 4 4 5 4 3 4 7 11 12 12 12 12 13 13 14 14 15 15 15 15 16 17 17 17 18 17 16 15 15 15 17 18 17
1 0 3 2 1 1 1 0 1 1 1 2 3 4 5 4 4 3 2 0 1 2 1 1 2 2 1 0 0 0 0 1 0 1 1 1 0 2 2 1 1 1 1 1 3 3 4 5 3 2 3 5 4 3 2 3 4 5 4 3 5 10 14 15 15 15 15 15 14 14 15 16 16 17 17 18 18 18 19 19 17 16 16 17 18 18 17
1 1 2 2 1 1 0 2 2 2 2 3 3 3 3 2 2 2 1 1 1 2 2 1 1 1 1 1 1 0 0 1 0 1 0 1 1 1 1 1 1 1 2 3 4 5 5 4 3 3 4 4 4 3 3 3 4 6 6 5 4 7 13 15 16 16 15 14 13 14 16 17 17 17 17 17 18 19 19 18 18 18 18 18 19 18 17
1 0 1 1 1 2 2 2 2 2 1 1 1 0 0 0 1 2 2 2 2 2 3 2 2 1 1 1 0 0 0 1 0 1 0 1 0 1 2 1 2 3 3 4 5 5 4 3 4 4 3 3 3 3 3 3 4 6 6 5 6 8 12 14 16 17 16 14 13 15 17 17 17 17 17 17 19 19 18 17 18 18 19 19 19 19 19
1 1 1 1 1 2 2 1 2 4 2 1 0 0 1 1 2 2 3 3 2 1 2 2 2 2 0 1 1 1 0 1 1 0 1 1 1 1 1 1 3 4 3 4 4 4 3 3 3 3 4 4 4 4 4 4 5 7 9 11 13 14 16 17 17 17 15 14 14 16 15 15 15 15 16 17 18 19 17 16 17 18 19 19 20 20 20
1 1 1 1 1 2 2 1 0 3 4 2 1 1 2 2 2 3 6 5 1 1 2 1 1 1 1 1 2 1 1 1 1 1 0 2 2 2 1 2 4 4 4 4 3 3 4 3 2 3 5 6 5 4 4 6 8 11 15 17 17 17 17 17 17 15 14 14 15 14 14 14 15 15 15 16 17 17 16 16 17 18 19 19 19 20 21
0 1 1 1 2 3 2 3 2 5 5 3 2 3 4 2 2 5 9 7 3 3 2 1 0 2 2 1 0 1 1 1 1 1 2 3 2 3 2 5 6 5 4 4 4 4 3 3 2 3 6 6 5 5 7 9 12 14 15 16 16 16 16 16 15 15 14 14 14 14 15 15 15 14 14 15 14 14 16 19 19 19 19 19 19 20 21
1 1 1 1 0 2 3 2 2 4 4 2 2 2 3 1 2 7 11 9 4 2 3 2 2 3 1 1 1 1 0 0 0 1 3 3 3 4 5 6 6 4 4 4 4 4 3 3 4 5 6 7 7 8 9 11 13 15 16 16 16 17 17 17 16 16 15 14 15 15 15 15 14 13 13 13 13 14 18 21 20 18 17 18 18 18 19
Wind_Direction
17 16 16 15 13 11 8 7 7 10 13 21 46 72 62 45 107 359 358 27 105 62 68 86 24 73 106 52 68 16 32 68 24 25 23 8 13 44 58 58 40 48 28 284 17 31 34 27 29 53 65 50 43 51 9 295 287 299 346 49 7 313 313 318 325 48 125 139 147 171 173 129 86 60 33 7 355 323 298 313 332 325 338 352 297 297 62
22 21 20 18 17 14 12 11 11 12 17 24 44 91 88 38 158 5 13 35 115 83 76 118 74 93 144 91 67 36 49 45 28 29 25 19 18 46 64 42 22 41 334 356 31 14 38 55 42 56 50 43 87 126 256 304 336 358 17 359 337 6 24 324 331 356 98 162 167 205 200 47 40 38 24 24 2 301 270 247 281 283 9 0 303 300 23
26 23 21 19 18 16 13 13 14 16 20 29 50 110 146 57 149 315 19 39 66 82 64 124 120 121 118 85 48 26 78 55 12 27 37 33 2 39 72 17 356 28 311 98 51 21 24 48 43 55 23 9 115 154 215 269 340 7 208 275 303 4 14 351 4 8 353 337 336 338 329 339 19 34 15 15 6 331 304 282 296 322 11 338 289 299 358
28 24 21 20 17 16 15 14 17 20 23 39 63 81 138 74 55 302 2 32 52 70 29 57 105 125 112 87 34 13 71 82 247 204 47 37 20 36 46 345 303 20 27 95 67 35 35 59 64 49 350 324 250 31 214 237 325 7 159 253 300 138 69 28 19 321 318 323 331 358 343 313 333 18 5 5 6 339 304 298 334 338 313 303 199 320 320
29 26 23 20 18 18 18 15 17 21 24 46 71 59 46 101 70 11 318 18 39 61 46 26 57 105 102 86 46 17 38 45 217 164 66 50 45 56 54 30 13 17 5 55 72 39 44 61 56 35 314 291 274 299 235 267 332 326 156 159 312 148 67 37 351 269 277 307 317 348 4 356 35 31 9 10 8 6 35 57 14 326 299 304 46 324 306
31 29 26 23 21 21 20 18 19 22 25 40 78 62 14 47 128 299 315 20 16 34 37 24 48 60 55 95 68 24 45 52 34 18 53 73 11 18 73 36 23 5 305 342 76 49 64 62 22 334 341 314 312 337 190 276 346 343 93 20 358 51 20 66 199 266 255 259 292 293 54 81 80 59 32 22 18 31 65 109 115 6 312 298 311 306 299
33 32 30 27 24 23 22 21 22 26 30 44 74 83 26 57 110 16 344 64 83 28 354 346 51 54 47 64 57 30 56 67 51 328 339 45 14 10 62 28 7 3 325 284 87 33 47 75 24 267 50 331 333 12 30 352 13 21 36 25 25 227 16 97 206 272 241 196 321 218 173 136 104 71 46 35 31 48 64 197 214 321 292 283 295 296 292
35 34 33 31 29 27 24 24 29 34 42 57 65 65 46 125 127 118 61 80 74 31 355 332 58 53 32 48 54 28 48 66 94 10 358 21 13 11 82 84 13 12 23 56 76 30 15 62 73 206 181 35 343 14 10 311 353 18 35 3 319 330 17 80 195 269 230 164 111 146 173 164 136 98 57 35 19 91 57 263 267 298 287 283 291 292 289
36 35 35 33 32 32 29 30 35 36 46 69 71 60 70 87 108 135 113 75 2 2 18 348 57 52 27 41 67 54 58 61 98 75 19 15 16 6 71 118 65 28 44 60 63 28 11 59 56 209 182 43 21 11 34 279 311 1 35 342 342 2 14 85 302 321 347 148 166 178 162 156 154 139 29 14 355 279 274 270 273 297 298 296 294 294 300
36 34 35 34 34 35 33 34 39 42 51 74 87 96 107 96 96 110 105 78 359 354 6 355 64 71 30 35 50 47 65 47 236 106 87 43 38 13 298 185 111 56 54 57 38 355 11 70 34 45 106 76 69 59 62 68 337 359 49 2 4 1 347 40 341 331 357 70 311 223 177 183 165 111 13 342 302 277 267 261 272 285 286 290 298 308 336
36 34 35 35 35 36 35 36 41 47 53 67 100 135 151 138 112 86 83 86 36 338 11 33 44 72 36 30 58 65 77 79 358 26 87 68 31 17 277 206 120 79 62 54 22 23 97 103 84 89 96 89 86 85 82 73 51 22 326 121 95 55 17 63 353 320 326 329 322 222 189 325 13 105 100 301 277 267 264 278 293 291 256 252 291 307 323
36 35 35 35 36 35 36 38 40 48 53 59 100 129 141 137 117 90 86 97 45 329 59 59 17 40 38 10 58 64 61 63 14 343 68 84 47 29 36 104 107 99 109 126 133 130 120 114 114 116 101 89 92 78 60 57 49 32 13 25 124 88 71 106 10 303 302 325 335 331 347 12 87 130 86 308 264 242 258 276 282 274 238 238 267 283 302
36 36 35 35 35 35 36 38 40 47 47 46 88 112 119 119 103 82 86 103 83 335 62 98 74 53 46 38 75 71 52 55 6 332 54 70 54 41 36 13 54 84 142 160 152 154 143 128 151 222 252 256 207 219 56 49 35 28 36 25 358 68 108 145 48 322 292 329 353 340 349 54 155 211 282 312 254 251 285 288 270 218 204 229 256 283 303
38 37 36 35 36 36 38 39 39 45 43 40 81 105 110 110 101 102 114 101 97 311 36 119 115 54 35 39 67 88 83 78 82 58 43 40 44 46 31 337 21 42 204 183 157 161 174 134 159 266 276 319 184 213 113 70 36 28 32 24 15 52 124 193 31 30 348 300 276 277 292 212 179 211 198 116 309 305 310 304 276 181 175 210 271 294 305
39 38 37 36 36 38 42 41 41 46 45 46 77 97 97 91 97 114 118 107 116 143 316 68 117 125 81 45 14 131 119 101 102 87 46 340 44 54 35 352 45 126 176 174 108 45 116 207 339 12 353 337 265 275 279 123 70 44 39 27 29 41 28 340 336 30 30 282 289 297 294 296 129 152 153 146 294 293 267 279 277 172 154 182 285 292 304
42 40 38 38 39 42 46 46 47 53 55 59 81 91 86 81 93 105 104 100 113 111 69 75 116 146 132 62 338 51 116 155 152 127 132 131 100 84 119 79 61 120 111 76 64 68 72 114 156 83 353 246 231 279 306 333 348 151 137 70 50 49 36 37 61 49 47 311 325 312 268 303 92 143 161 165 285 223 192 256 280 162 166 240 285 286 302
44 42 42 44 46 47 49 50 54 61 64 67 80 86 82 79 94 102 95 79 82 88 78 128 135 152 142 127 268 332 91 116 145 152 151 120 128 232 132 111 111 130 142 102 72 69 66 88 126 194 235 195 240 287 294 323 329 292 213 37 46 44 6 14 51 49 103 221 312 269 246 285 116 148 165 2 144 167 210 299 324 156 199 261 279 288 303
47 46 47 50 52 52 53 53 56 65 70 72 76 80 78 76 90 103 98 87 93 101 106 179 165 199 335 81 116 66 79 299 283 120 81 86 148 221 46 143 138 106 209 231 169 74 88 108 176 225 174 168 238 293 279 273 308 298 298 325 5 42 359 8 46 49 175 212 282 274 260 212 131 158 176 111 152 179 272 320 352 156 252 285 283 295 306
49 50 52 55 57 56 55 53 53 60 70 73 74 74 73 76 90 98 95 80 47 96 123 212 220 231 327 93 121 96 186 258 292 136 142 142 132 113 346 246 211 248 220 175 125 96 108 177 216 202 206 200 204 283 282 246 237 242 303 312 307 55 350 291 265 313 184 205 260 274 276 146 141 176 178 158 189 282 314 335 348 298 304 313 302 300 306
52 55 58 60 60 58 57 55 54 57 66 79 90 83 75 76 85 94 104 112 105 84 98 172 225 168 175 223 165 141 208 208 297 209 143 97 96 159 211 212 174 192 193 142 119 172 178 183 175 192 230 234 111 239 248 238 236 205 211 246 212 175 328 300 264 242 253 269 270 297 314 140 156 192 190 179 225 313 338 329 311 301 303 310 305 300 300
57 60 62 63 63 61 60 59 57 62 71 82 94 87 76 72 78 100 117 118 113 94 108 146 154 127 117 111 99 76 30 81 40 285 78 66 10 247 220 177 116 168 182 144 146 173 174 168 149 191 229 175 108 234 239 255 257 189 97 234 208 188 208 298 265 203 211 303 269 297 3 138 173 216 272 246 258 318 329 302 298 299 300 307 305 298 292
64 67 66 67 68 66 66 65 62 67 73 77 86 89 87 87 92 102 105 98 87 85 120 126 116 98 87 78 78 80 82 85 60 265 178 129 68 326 280 92 89 115 194 125 91 104 141 156 147 166 200 175 173 211 234 276 285 4 116 229 218 187 184 291 266 208 223 273 268 275 317 151 181 212 258 276 279 284 272 271 282 294 300 304 300 298 296
74 76 72 72 74 72 72 73 69 69 72 70 75 91 102 104 100 100 98 92 86 92 109 114 109 89 70 55 56 63 70 69 62 157 186 182 111 101 265 7 72 85 218 331 330 313 154 154 123 146 205 182 149 150 204 241 257 267 200 214 226 170 126 139 235 238 267 270 259 261 278 275 211 215 241 267 268 244 233 253 268 285 295 292 289 292 292
84 83 79 76 76 74 74 75 73 72 73 68 70 91 106 109 103 98 96 94 97 102 92 87 87 66 34 17 36 45 45 44 39 67 117 165 195 172 200 162 151 198 165 91 11 56 110 116 99 234 246 203 159 159 238 241 221 182 178 231 235 176 161 197 228 240 289 273 232 223 254 264 256 246 237 239 242 231 225 248 268 283 288 276 271 280 282
91 89 84 80 78 77 76 75 75 74 74 72 74 88 99 102 100 98 95 95 110 118 95 70 28 6 336 342 25 39 30 19 15 30 50 105 204 151 121 141 155 130 103 113 138 113 89 93 127 195 227 214 201 198 233 254 210 171 208 258 252 157 172 220 230 214 242 264 263 267 272 265 257 253 243 233 235 228 223 240 259 268 263 246 242 258 271
95 92 89 86 83 82 81 80 79 78 76 76 76 79 85 89 87 89 97 101 99 93 96 99 5 351 24 42 32 29 21 10 3 4 9 37 134 134 133 136 133 107 93 85 76 103 95 99 132 186 191 202 235 228 203 226 186 189 235 255 87 118 163 204 225 232 254 267 272 283 284 268 224 206 225 234 234 231 233 237 238 237 239 239 237 242 256
97 93 91 90 88 87 86 85 84 82 80 79 77 74 75 78 75 77 101 111 97 62 101 128 268 299 134 92 37 19 23 2 344 339 347 50 124 143 151 145 135 118 102 73 61 98 99 114 183 203 177 151 157 151 240 269 138 230 256 212 138 160 195 182 192 254 270 277 267 262 293 288 263 214 219 217 208 226 241 238 233 235 236 240 248 254 259
97 94 93 93 94 95 95 93 91 90 86 81 76 72 69 64 58 56 60 87 119 108 108 133 148 160 157 120 25 8 13 356 334 307 286 105 114 144 162 157 150 132 107 116 156 122 114 241 178 137 139 189 173 153 81 6 183 255 253 196 176 200 204 177 191 245 270 287 284 161 247 283 289 231 187 194 193 218 242 243 244 246 238 230 245 264 270
98 91 87 92 106 120 123 116 110 103 88 73 66 67 66 60 56 58 64 83 103 105 98 95 122 128 195 223 17 353 340 316 264 226 188 137 123 142 155 152 151 139 105 100 156 145 125 177 178 140 165 215 201 185 162 170 213 251 228 181 186 209 207 195 214 242 264 283 279 173 225 271 291 116 183 208 200 213 238 247 244 241 233 225 235 255 266
95 77 66 63 67 88 175 208 213 232 286 324 355 51 60 52 46 54 65 82 98 104 105 113 120 125 286 233 186 339 340 267 218 219 210 172 149 154 158 146 135 138 116 80 207 167 126 144 187 211 250 225 179 185 166 159 234 264 239 192 200 217 219 219 229 239 253 278 111 168 237 268 293 220 224 213 203 210 230 242 236 231 227 220 226 245 254
99 84 75 70 67 68 70 76 90 221 282 288 298 34 67 46 28 39 56 68 79 95 105 98 90 348 316 241 209 329 354 313 230 227 223 202 162 167 182 171 160 183 185 50 70 141 149 154 148 152 171 142 118 168 163 151 245 266 245 207 208 214 216 223 230 237 250 224 102 182 252 240 213 247 238 200 196 206 220 230 227 222 221 221 228 243 248
103 89 80 74 70 69 70 72 76 80 81 78 80 86 102 116 55 37 50 64 76 97 102 84 75 343 326 289 247 335 350 329 259 245 223 206 182 192 198 184 173 173 129 97 126 156 145 146 134 138 152 97 77 104 156 193 236 247 225 202 210 216 218 228 233 234 230 169 162 248 266 232 201 234 248 195 188 202 218 229 223 215 219 228 235 239 239
106 95 87 83 78 75 76 77 77 79 80 79 80 79 79 82 74 37 41 65 72 79 86 86 97 112 323 279 270 345 347 326 326 5 237 195 346 317 219 161 122 136 99 97 178 149 88 119 137 127 111 74 88 128 206 228 232 232 219 209 223 219 223 240 245 235 219 188 194 241 275 277 202 217 227 199 196 206 215 219 211 209 221 232 240 244 242
117 105 94 88 79 70 69 71 72 77 80 78 76 72 66 63 59 51 65 116 86 69 65 75 116 172 327 327 166 18 4 346 273 328 317 20 10 345 217 92 31 146 127 28 104 115 85 114 146 150 158 111 103 205 249 248 241 236 234 236 230 210 242 258 246 233 222 204 207 232 264 332 132 185 202 207 207 205 205 204 203 212 229 239 245 249 244
132 118 101 80 52 32 28 38 51 68 73 73 75 72 65 60 56 54 56 67 69 56 40 42 76 119 3 347 309 340 4 7 172 234 282 346 8 18 169 275 328 229 100 32 70 148 108 107 158 179 174 130 203 226 239 248 244 232 225 222 202 169 192 243 240 225 207 192 205 223 210 174 203 231 234 226 214 201 201 206 209 217 236 252 254 251 243
159 144 111 6 347 340 344 13 30 49 72 82 85 75 59 54 54 54 56 55 55 74 130 65 58 116 42 321 287 318 354 359 166 320 307 293 4 25 55 46 275 192 70 55 173 204 65 88 188 227 163 201 225 228 225 229 230 218 213 212 194 181 194 222 197 158 145 149 179 204 197 207 233 250 253 244 225 205 207 217 217 218 235 253 257 253 247
209 224 277 314 324 322 322 8 36 64 87 98 92 57 39 40 52 45 45 44 43 50 75 107 126 138 137 285 277 331 347 336 269 350 340 272 304 345 29 58 304 273 24 17 276 152 63 55 278 241 221 222 239 250 236 222 226 224 215 204 192 192 202 191 142 136 145 192 216 217 219 228 240 245 247 248 233 208 210 223 223 221 234 250 255 255 254
240 259 280 300 322 346 343 338 63 92 72 35 23 25 17 23 46 41 21 15 22 32 50 81 114 124 75 269 291 345 356 344 322 358 353 218 299 331 335 122 41 289 274 285 289 70 36 39 50 259 256 262 275 271 248 228 224 226 217 188 183 187 186 171 158 158 190 245 252 239 228 239 248 242 235 239 234 219 221 231 231 229 237 248 253 256 259
247 262 279 297 328 155 202 198 119 116 320 331 346 10 359 15 38 29 337 346 9 11 19 58 116 155 173 255 303 4 32 28 318 340 10 175 289 321 303 225 56 2 307 294 45 59 290 297 31 293 274 272 272 261 242 223 217 219 212 198 196 192 181 178 184 191 210 247 266 260 244 252 259 253 235 234 238 233 230 231 233 236 243 249 254 256 256
230 242 270 291 246 167 172 185 281 287 291 341 10 31 22 28 44 81 339 26 35 321 348 63 112 205 245 297 277 335 37 27 304 288 336 256 200 79 357 307 23 340 288 276 18 48 293 278 309 297 268 256 250 250 237 219 219 216 205 199 201 196 188 190 203 213 225 246 260 253 246 247 249 245 238 234 235 234 230 228 233 242 250 254 254 254 255
215 238 289 214 163 146 131 83 10 7 66 32 19 31 43 11 356 21 56 44 329 275 275 87 88 271 253 143 225 247 25 33 51 118 82 305 248 101 321 294 345 356 267 259 273 61 59 291 271 260 251 247 250 262 244 233 230 216 202 200 199 196 195 199 209 219 225 233 242 245 247 246 241 240 239 236 234 237 239 239 242 249 253 255 255 256 258
246 243 173 132 134 132 110 46 25 30 61 63 22 19 356 330 351 16 28 8 263 268 233 132 168 238 184 165 207 238 22 35 49 92 82 312 317 105 93 332 14 326 248 249 43 57 34 281 263 256 253 250 249 248 234 227 223 211 201 197 195 197 200 203 211 222 227 231 238 245 248 246 243 245 245 243 241 242 244 246 249 253 257 259 259 258 259
214 179 153 136 101 47 26 14 19 39 63 54 34 5 330 338 18 22 305 288 261 260 259 199 182 217 182 153 167 207 13 21 26 79 87 303 326 62 55 30 14 233 238 313 60 70 236 242 242 245 255 260 247 242 237 228 224 222 209 204 204 206 208 210 216 227 234 237 242 248 250 248 249 252 251 245 241 241 245 249 253 256 260 262 260 258 260
182 167 90 75 18 15 9 313 352 61 64 22 58 122 311 321 319 213 257 276 222 205 235 194 142 221 260 37 78 79 258 62 67 73 29 320 357 56 64 247 242 239 344 15 30 230 244 246 245 250 272 294 265 247 236 221 214 215 211 208 209 210 212 215 220 227 233 237 240 244 247 247 249 250 248 244 241 242 248 253 255 256 258 260 259 260 263
236 300 24 33 353 349 2 306 339 31 67 236 174 162 191 259 249 220 228 238 161 163 203 119 117 143 238 291 81 100 337 29 25 287 306 2 2 289 217 232 260 27 33 304 283 279 267 259 254 250 249 250 249 245 234 218 208 198 188 198 204 205 208 212 216 222 230 236 239 241 243 244 245 245 246 248 249 248 250 254 256 257 257 256 257 261 262
219 116 77 84 295 312 68 102 322 335 186 201 194 180 189 213 220 215 221 195 119 143 174 157 121 124 172 252 61 61 26 43 346 229 119 80 298 251 234 230 3 31 15 273 266 256 249 252 258 246 233 237 244 245 238 227 204 188 188 198 199 201 209 215 220 226 233 238 239 240 242 243 244 245 249 253 254 253 252 254 256 256 255 254 257 262 265
168 80 86 105 297 326 84 197 229 229 200 199 204 196 190 209 242 238 224 184 142 141 137 107 89 112 163 160 134 146 42 63 40 259 185 140 217 265 6 32 259 223 209 233 246 247 250 259 261 244 234 242 253 253 242 224 200 201 212 221 205 200 210 216 221 227 234 237 238 240 243 245 247 247 250 253 256 257 257 257 256 255 255 256 260 264 263
202 66 100 158 216 225 209 219 274 294 246 199 218 265 154 185 271 253 202 161 132 123 124 125 124 120 66 40 91 204 354 60 176 236 192 105 245 312 5 346 279 247 210 214 231 244 253 249 241 238 242 247 250 248 239 222 209 208 213 217 214 211 212 214 220 229 236 237 236 240 245 248 250 250 249 252 257 261 262 260 257 257 257 258 260 262 259
138 106 106 138 176 201 200 183 344 319 290 214 93 3 149 195 250 235 169 145 134 133 140 136 136 146 194 353 56 82 326 248 213 260 5 17 231 213 196 264 274 267 239 221 227 244 256 248 242 255 265 257 244 243 242 230 220 216 216 219 222 221 218 219 225 233 238 237 239 244 248 249 249 249 248 250 256 264 268 265 259 257 258 258 259 260 259
104 118 173 172 210 256 257 115 35 298 296 301 280 231 184 198 250 208 168 158 136 83 98 86 81 128 142 33 36 12 268 234 149 112 224 232 209 177 182 231 240 235 229 226 228 239 252 254 249 260 265 259 246 241 243 237 229 226 225 226 226 225 224 225 229 234 238 241 244 248 248 247 248 249 251 254 261 268 272 268 261 259 260 261 260 259 260
18 291 251 193 203 222 199 155 204 262 272 270 244 206 179 188 240 189 169 160 124 89 126 185 79 76 69 30 4 225 240 190 125 158 236 231 186 150 190 233 239 235 238 251 254 253 256 251 232 245 264 267 254 240 242 243 239 235 231 229 225 224 224 226 229 233 238 243 245 245 246 250 255 257 259 263 267 269 269 270 270 268 266 264 261 259 260
193 233 275 313 166 168 161 165 237 259 255 248 230 190 179 215 208 165 159 155 140 138 171 173 94 91 125 245 217 159 126 45 238 246 249 236 199 184 205 231 246 249 249 259 269 273 269 252 232 233 248 260 262 260 258 254 248 242 237 230 224 222 223 225 229 233 237 239 241 245 250 253 256 257 257 258 257 257 263 272 279 279 274 270 267 264 262
Height
839 837 835 834 832 830 828 826 824 821 819 818 817 818 819 823 827 827 823 821 819 820 837 858 862 863 870 873 874 876 874 871 872 875 876 874 872 870 872 875 875 875 877 875 873 874 876 876 877 878 883 885 887 896 903 900 897 889 877 877 882 879 875 869 856 855 864 872 878 881 880 876 874 881 890 892 892 892 886 881 880 875 870 871 866 860 877
840 838 836 834 832 830 828 826 824 822 820 819 818 819 824 829 830 828 825 820 817 824 840 853 860 867 871 870 872 876 876 875 874 875 877 877 875 871 873 877 875 876 881 878 875 877 877 878 882 883 883 885 891 898 900 897 891 885 882 884 882 876 874 871 861 856 859 863 867 869 870 873 878 886 895 900 904 904 899 895 887 878 879 884 876 864 872
840 838 837 834 833 831 829 826 825 823 821 820 819 821 825 829 830 831 830 824 823 836 849 851 856 864 865 867 873 874 875 880 881 878 879 882 881 875 876 880 879 880 881 877 879 881 876 877 885 889 886 886 891 894 897 897 891 889 894 894 887 880 877 874 869 868 868 864 863 868 873 877 883 891 898 903 906 904 896 885 874 873 885 889 881 870 874
841 839 837 835 833 831 829 827 825 823 822 821 821 822 825 827 831 835 836 833 837 851 860 855 855 861 861 865 875 875 873 879 884 881 879 881 882 879 880 883 881 878 878 876 878 882 881 881 886 892 891 887 889 892 894 894 892 892 897 897 891 885 884 884 879 875 874 872 875 884 888 884 886 897 903 904 907 908 897 881 876 886 892 884 881 886 887
842 840 838 836 834 832 830 828 826 824 824 822 821 825 828 830 840 846 843 841 846 853 860 862 860 861 862 867 876 878 875 877 878 878 878 880 882 881 882 884 880 878 879 876 877 883 884 884 888 896 898 892 890 892 892 891 891 892 894 896 891 879 880 893 895 886 884 886 890 895 894 891 897 906 908 904 905 905 898 891 893 900 896 881 881 894 894
843 841 839 837 835 833 831 828 827 825 824 823 823 828 834 836 846 855 850 849 855 856 860 867 866 864 867 874 879 878 877 878 877 877 878 879 881 878 878 884 885 887 887 879 878 886 885 886 894 897 898 896 888 885 888 889 890 890 890 893 892 878 879 899 904 893 893 898 898 897 897 899 905 908 907 907 907 905 904 905 906 905 900 888 883 891 893
844 842 840 838 835 834 832 829 828 826 825 825 822 828 839 842 847 857 855 856 866 870 870 869 866 865 869 875 880 879 878 881 885 886 881 876 879 879 879 886 889 891 892 883 882 888 883 884 895 899 898 899 894 887 885 886 889 890 888 894 897 884 881 901 908 896 893 899 900 900 900 902 908 909 907 907 908 908 909 907 905 907 905 895 890 894 894
845 843 841 839 837 835 833 831 829 828 826 826 825 830 838 839 843 851 855 861 872 875 874 869 863 867 871 873 881 885 881 881 887 891 885 878 880 883 883 890 893 892 891 886 886 893 890 887 895 901 898 898 899 896 891 891 890 889 891 897 896 883 883 904 910 889 884 898 903 901 899 899 904 906 906 907 907 907 910 908 906 908 904 897 899 901 895
846 844 842 841 839 836 835 832 831 829 827 827 829 834 838 838 841 844 847 862 875 874 874 872 865 869 876 877 882 884 882 884 887 890 893 890 887 888 888 890 893 893 892 892 894 899 899 895 897 901 899 895 897 897 898 899 893 890 897 900 896 890 889 903 902 875 870 893 901 898 902 904 904 905 905 908 908 906 908 908 906 907 906 904 905 900 892
847 846 843 842 840 838 836 834 832 831 830 829 830 836 839 839 843 842 842 860 879 879 876 873 868 874 885 887 887 885 885 891 889 885 892 896 894 895 895 891 891 892 893 897 900 900 900 900 900 902 901 900 902 900 901 904 898 895 900 905 912 911 895 896 901 878 866 884 896 900 901 893 890 900 908 910 910 908 907 905 901 903 907 906 901 894 896
849 847 845 843 841 839 837 836 834 833 831 831 832 836 839 838 840 843 843 857 879 885 878 873 873 881 890 890 890 889 888 892 891 885 887 894 897 898 898 894 890 893 897 901 902 902 902 902 902 903 902 901 904 904 903 903 903 903 901 900 912 916 900 901 911 890 870 880 892 893 885 872 879 902 912 912 911 909 907 903 899 899 903 903 900 898 903
850 848 846 844 842 841 839 837 836 834 832 833 833 834 838 838 838 841 844 856 878 886 879 883 891 893 894 894 892 891 891 892 895 892 889 893 897 898 899 896 890 894 901 902 902 902 902 902 903 903 903 903 904 904 901 900 903 906 904 899 899 901 900 909 917 902 886 888 889 876 867 875 897 911 912 912 912 911 909 902 897 899 903 904 905 904 905
851 849 847 846 843 842 841 839 837 836 834 835 834 834 837 838 838 843 848 858 879 888 883 890 903 902 898 897 895 893 896 897 898 897 894 894 896 898 901 899 896 898 902 902 902 902 900 901 902 899 900 902 902 901 901 904 904 903 904 903 897 894 898 906 910 902 893 893 892 880 877 894 912 911 909 912 911 910 910 901 895 900 906 906 906 906 906
852 850 848 847 846 844 842 841 839 838 836 836 836 836 838 838 839 844 847 856 881 900 894 888 895 900 899 898 896 895 897 897 895 896 897 896 898 899 901 901 900 901 902 901 900 899 898 899 898 894 894 894 892 892 897 905 909 906 905 905 902 898 896 895 898 903 903 901 899 890 886 894 904 906 908 911 910 911 914 908 899 900 906 908 907 907 907
853 852 850 849 847 846 844 843 841 840 839 839 838 837 839 840 840 842 846 854 874 895 897 889 891 899 901 900 898 893 891 893 893 895 899 901 900 899 901 902 901 901 902 901 900 900 899 897 892 887 886 888 890 890 891 896 904 909 911 909 905 903 899 892 893 906 914 907 896 891 884 882 890 901 908 911 912 912 917 915 904 900 905 908 907 907 907
855 854 852 851 849 848 846 845 844 842 842 841 840 839 840 842 842 842 847 853 860 876 893 900 902 904 902 901 901 896 890 891 893 893 895 897 899 900 901 902 901 901 902 902 903 903 899 897 898 893 891 897 900 895 890 890 896 903 908 908 905 906 909 903 898 909 919 909 896 896 892 883 888 902 908 911 911 913 918 912 898 898 907 907 905 908 907
857 855 854 852 851 850 848 847 846 845 844 844 843 842 842 844 845 844 847 854 865 884 900 905 904 904 900 897 900 899 896 896 896 891 889 892 898 901 900 901 902 902 900 901 903 902 898 901 905 898 896 906 906 896 894 896 896 896 898 902 905 907 909 906 902 911 924 918 903 897 891 887 895 904 906 908 911 916 914 897 886 898 909 904 904 908 905
859 857 856 855 853 852 851 850 849 848 847 847 845 844 845 847 848 847 849 856 871 892 905 904 902 903 899 895 898 900 901 901 897 893 892 896 899 899 898 900 900 899 900 901 900 896 894 901 906 897 895 907 909 899 897 900 900 901 903 905 909 913 918 919 915 916 924 923 910 895 887 890 901 905 906 910 913 911 902 888 888 902 905 901 904 906 904
860 859 858 857 855 854 853 852 851 850 849 849 848 847 848 850 850 849 852 859 870 887 901 904 903 902 902 901 902 903 903 902 897 893 889 890 896 901 902 902 900 899 901 899 899 900 895 898 912 913 902 902 906 903 900 900 901 907 911 909 910 913 918 923 921 916 920 925 918 899 886 893 904 904 905 911 909 899 890 889 896 901 900 900 903 903 903
862 861 860 859 858 857 855 854 853 852 851 850 849 849 852 854 853 851 852 861 875 891 902 904 902 902 903 903 902 901 901 900 899 895 888 887 898 901 892 889 893 898 897 890 894 905 899 893 910 918 904 901 907 905 902 905 906 910 912 911 913 914 908 909 915 916 917 922 919 899 885 893 905 903 902 906 901 892 891 895 898 898 898 900 901 901 904
864 863 862 861 860 859 858 857 856 855 854 854 851 850 854 856 856 855 854 856 867 885 899 903 902 903 903 902 902 902 901 899 899 899 896 896 903 897 884 884 892 895 894 889 891 901 902 900 910 914 905 906 910 906 905 904 903 912 921 917 915 916 907 902 910 916 912 907 901 889 883 893 902 900 896 896 894 893 896 898 896 896 898 900 900 900 903
865 865 864 863 862 862 860 860 860 858 858 858 854 852 856 860 861 861 859 858 866 883 897 902 903 903 902 902 903 902 902 902 901 901 900 899 903 900 893 896 899 897 899 898 892 894 901 905 907 906 903 905 907 911 917 906 892 907 923 915 906 909 907 903 907 911 908 897 888 883 885 891 897 896 893 893 894 896 898 898 897 897 897 899 900 900 901
867 867 867 865 865 864 863 863 863 861 861 861 858 856 859 864 865 863 861 865 876 891 900 901 902 903 903 904 903 902 903 903 901 901 902 899 899 901 899 900 900 899 903 901 894 893 897 900 903 900 899 903 904 908 916 912 900 906 913 906 903 909 912 911 910 909 905 895 886 886 887 888 891 893 893 894 895 896 897 897 897 897 897 898 900 900 901
869 869 869 868 867 867 866 865 865 864 864 864 862 861 862 865 867 866 865 870 879 889 897 901 902 903 903 904 903 902 903 902 901 901 901 899 897 896 897 901 901 900 902 901 901 902 900 903 911 906 897 902 905 898 897 901 902 906 905 901 905 912 914 911 909 908 904 891 883 887 888 887 889 892 892 894 895 894 896 896 895 896 898 899 900 900 901
871 871 871 870 869 869 868 868 867 867 867 867 866 866 866 866 867 867 866 871 875 881 891 900 903 904 904 904 903 903 902 902 901 901 900 900 899 895 896 901 901 900 901 901 903 904 899 900 909 904 895 902 907 900 896 898 900 904 904 898 899 908 913 909 904 905 902 888 880 885 887 884 888 890 889 891 892 892 894 895 895 897 898 898 899 900 900
873 873 873 872 872 871 870 870 870 869 869 869 869 868 868 868 869 869 868 870 874 880 891 901 905 904 904 903 903 903 903 901 901 901 900 899 900 898 898 901 901 901 903 903 903 904 902 902 904 900 896 903 908 905 904 903 902 906 904 898 901 909 910 905 902 901 896 885 881 885 885 881 885 889 888 889 890 891 893 894 895 896 897 897 898 899 898
875 875 875 874 874 873 873 872 872 871 872 872 871 871 870 870 871 871 870 871 872 875 887 899 905 904 904 904 903 903 903 902 901 902 901 899 899 899 900 901 900 901 903 903 903 905 904 901 900 901 904 910 913 914 914 911 911 912 906 902 907 907 900 900 903 898 888 880 879 884 884 880 881 885 887 888 890 891 892 892 893 894 895 895 896 896 896
877 877 877 876 876 876 875 875 874 874 874 873 873 873 872 872 872 871 872 872 870 872 884 897 903 903 902 903 903 902 902 902 901 901 901 900 899 900 899 900 901 901 901 900 900 901 899 896 899 908 915 913 910 913 918 918 915 908 898 896 898 893 887 889 892 887 879 874 876 883 885 881 879 883 886 888 889 890 891 891 891 892 893 894 895 895 895
879 879 878 878 878 877 876 876 876 875 875 875 875 874 873 874 875 874 874 873 872 876 888 897 900 901 901 902 903 903 902 901 901 901 901 900 899 899 900 900 900 900 902 901 899 898 900 902 905 910 911 907 905 906 911 913 906 891 882 885 888 884 881 881 879 877 875 874 877 881 882 880 881 884 885 886 888 888 889 889 890 890 892 892 893 893 893
881 880 879 878 878 877 876 876 876 876 876 875 875 875 875 876 878 877 877 877 876 878 885 891 896 900 903 902 902 902 901 901 901 900 900 900 900 899 899 899 900 901 901 900 898 898 901 906 910 909 906 907 907 905 907 911 903 884 875 880 883 880 880 879 876 875 875 875 878 881 881 880 882 884 884 886 887 887 887 888 889 889 890 891 891 891 892
882 881 880 879 878 877 877 876 876 876 876 876 876 876 876 878 879 879 879 879 878 878 884 890 896 901 903 902 902 902 901 901 901 901 901 900 900 900 899 899 899 899 898 898 900 902 902 903 905 907 907 908 907 905 907 910 899 879 871 874 876 876 877 877 875 876 876 877 880 882 881 881 883 882 882 884 884 885 886 886 887 888 888 889 890 890 890
883 882 882 881 880 880 879 878 878 877 877 876 876 877 878 880 880 880 880 879 879 880 882 887 894 900 901 900 901 902 901 900 900 900 900 900 899 899 899 899 899 898 898 899 901 902 903 903 904 906 908 908 907 909 911 906 890 873 867 868 871 873 875 874 874 876 877 878 881 880 877 878 880 880 880 881 883 884 885 885 886 887 887 887 888 888 888
883 884 884 882 883 883 881 881 881 880 879 879 879 879 881 881 880 881 880 880 880 881 882 886 893 899 900 899 900 901 900 900 900 900 898 898 899 899 898 899 899 898 898 899 899 900 903 905 905 906 908 909 909 910 906 895 878 867 865 868 871 873 874 874 875 877 876 877 879 877 874 875 878 879 879 880 882 882 883 883 884 885 885 886 886 885 885
885 885 885 884 885 884 883 883 883 882 881 881 881 881 882 881 881 882 880 880 881 883 885 890 893 894 896 898 899 900 900 899 899 899 898 897 899 899 897 897 899 898 897 897 898 901 904 906 905 904 906 910 912 907 893 876 866 865 868 870 872 874 875 875 874 874 874 875 876 876 875 876 878 879 879 879 880 880 881 882 883 883 884 883 883 883 883
886 886 885 886 886 885 884 885 883 883 883 883 883 884 883 882 882 882 880 881 882 881 886 895 895 891 891 892 892 896 900 900 900 901 900 898 899 900 899 898 897 896 896 898 899 900 902 904 902 900 903 908 905 894 876 863 859 863 865 866 870 873 873 871 870 870 872 873 874 875 876 876 877 877 876 877 878 879 879 880 881 881 881 880 879 880 880
887 887 886 886 886 885 885 885 883 883 884 883 883 884 883 883 884 883 882 883 882 880 888 898 900 897 896 893 892 897 900 899 900 904 903 899 898 900 899 897 895 896 899 901 901 901 903 904 901 900 904 901 885 869 861 858 856 858 858 860 865 868 866 865 866 868 870 873 874 874 875 876 875 875 875 875 876 877 877 878 879 879 879 878 877 877 877
887 886 886 886 886 885 885 884 884 885 884 884 885 885 883 884 884 882 882 884 884 885 890 893 896 904 907 903 900 902 900 898 900 903 901 900 899 901 902 898 894 896 898 898 898 902 904 904 902 898 893 883 866 857 860 861 857 857 858 858 861 864 864 865 867 868 870 872 873 873 874 874 873 873 873 873 874 875 875 875 875 875 875 875 874 874 874
887 887 887 886 886 886 885 884 885 885 884 885 885 883 883 885 884 883 887 888 887 891 896 894 897 910 915 907 902 901 899 901 904 901 899 902 901 898 900 899 896 897 896 894 900 906 904 905 911 905 888 873 864 859 860 861 859 858 859 859 860 862 863 864 866 867 868 868 868 868 870 871 870 870 871 871 871 872 872 872 872 872 872 872 872 872 872
886 887 887 885 885 886 885 885 885 885 885 885 884 883 885 887 883 883 891 895 892 895 899 898 902 912 913 904 901 903 903 904 903 899 899 902 898 895 898 899 898 900 894 889 899 905 896 895 910 909 885 867 861 856 854 857 858 857 858 859 860 861 861 862 864 865 864 864 863 864 866 867 866 867 868 868 868 869 869 869 869 870 870 869 869 870 869
886 887 886 885 885 885 884 885 885 884 884 885 884 883 885 886 886 890 894 892 890 896 902 902 907 915 914 906 904 906 905 904 903 901 902 902 900 901 901 899 900 901 892 886 899 907 894 889 902 898 870 851 850 852 853 857 857 855 857 859 858 859 860 861 861 862 862 863 863 864 864 865 865 865 866 866 867 867 867 867 867 867 867 867 867 867 867
886 886 885 885 885 884 885 886 885 885 886 886 884 884 886 889 896 904 899 886 884 896 908 909 907 908 911 911 909 907 906 908 909 909 907 905 904 903 900 900 904 901 889 888 903 908 897 891 894 883 859 845 847 852 854 855 855 855 857 858 857 858 859 860 860 861 862 862 862 863 863 863 864 864 864 864 865 864 864 865 864 864 865 864 864 864 864
885 885 884 885 885 884 885 885 884 884 886 883 882 888 895 895 896 899 894 888 891 900 906 906 904 903 906 910 909 906 907 910 911 910 906 904 905 904 903 906 906 895 887 896 909 906 896 892 884 866 849 845 849 852 853 852 852 854 855 855 856 857 857 858 859 859 860 860 861 861 861 861 862 862 862 863 863 862 862 862 862 862 862 862 862 862 862
885 885 885 884 885 884 884 885 885 887 888 885 882 885 890 893 896 898 896 898 905 906 901 902 906 905 905 907 909 908 909 910 910 910 908 906 906 907 906 905 901 894 896 907 908 896 888 883 867 848 841 845 849 851 851 850 851 853 853 853 855 855 855 857 858 857 858 859 859 859 859 860 860 860 860 861 861 860 860 860 860 859 860 860 859 859 859
886 886 884 884 886 885 883 883 885 885 885 886 887 885 882 885 894 898 893 891 897 900 900 904 905 901 901 907 910 908 909 910 909 908 908 908 909 907 899 894 895 899 902 901 896 892 889 879 860 847 847 849 848 848 848 849 850 852 851 852 853 853 854 855 856 856 856 857 856 857 858 857 857 858 858 858 858 858 857 857 857 857 857 857 857 856 857
885 885 884 883 885 884 881 882 887 886 882 885 889 889 884 883 885 887 888 893 897 899 901 906 906 901 903 909 909 907 910 912 907 905 908 909 905 900 896 895 900 903 901 895 891 887 879 863 849 845 847 846 843 843 845 846 847 849 849 850 851 851 852 853 853 853 854 854 854 855 855 855 855 856 855 855 855 855 855 855 855 854 854 854 854 853 854
884 887 885 880 881 886 886 884 883 882 882 885 886 884 882 881 882 887 896 902 902 899 901 906 907 903 904 908 908 909 913 911 905 907 914 909 896 894 900 903 899 895 892 888 881 868 851 839 838 840 841 840 840 842 844 845 846 847 847 847 847 847 848 849 850 850 851 852 852 852 853 853 853 853 852 852 853 853 852 852 852 852 852 851 851 850 851
885 890 887 880 882 889 888 883 881 882 884 886 886 887 890 893 895 898 903 904 902 902 906 909 908 905 906 909 908 908 913 912 907 908 913 906 895 897 905 902 893 887 882 871 858 848 840 837 838 839 839 840 841 841 842 844 845 845 845 844 844 845 846 847 847 848 848 849 850 850 850 850 850 850 850 850 850 849 849 849 849 849 849 848 848 848 848
886 888 884 880 880 880 879 882 886 888 890 894 898 902 905 903 897 896 900 905 906 903 903 905 904 903 906 909 907 905 910 911 904 904 911 908 897 892 892 888 884 885 880 865 849 839 835 836 837 838 840 841 841 840 841 842 842 842 843 842 842 843 843 843 844 845 845 846 847 847 847 847 847 847 848 847 846 846 847 846 846 846 846 845 845 845 845
885 884 883 883 883 882 887 893 891 884 887 898 905 906 904 899 893 893 900 906 905 903 904 906 903 899 902 909 909 906 907 906 900 902 909 906 893 887 886 880 870 864 861 857 850 841 835 836 840 840 840 841 840 839 839 839 838 839 840 839 838 840 840 840 841 842 842 843 844 844 844 845 845 844 845 845 844 843 844 844 843 843 843 842 842 842 841
884 883 883 883 880 882 892 896 886 875 879 890 894 895 897 895 892 894 901 904 904 905 906 905 902 901 906 909 904 897 899 905 905 902 897 890 888 891 889 875 857 846 842 843 844 840 835 838 841 839 837 838 839 838 837 837 836 836 836 835 836 837 837 837 838 839 839 840 841 841 842 843 842 842 842 842 841 841 841 841 840 840 839 839 839 838 837
884 881 881 881 878 878 881 881 874 870 873 876 878 884 891 890 887 891 898 902 902 900 898 898 901 903 902 896 889 887 894 904 907 900 890 887 892 893 877 856 844 839 835 834 837 838 837 839 840 838 835 836 835 834 834 834 833 833 833 833 834 835 835 835 836 837 837 838 838 839 839 839 839 839 840 839 839 839 839 837 836 837 836 836 835 835 834
880 877 879 884 887 886 883 879 876 876 877 878 881 887 889 887 888 894 899 898 895 892 893 898 902 896 886 884 889 894 896 897 895 888 881 880 884 878 859 841 835 835 834 834 836 837 837 838 839 837 834 833 832 831 832 831 830 830 831 831 831 832 832 833 833 834 834 835 836 836 836 837 837 837 838 837 837 837 835 833 833 834 833 832 832 832 831